Weather History for Russell, KS

Change the Weather History Date:

Wednesday, May 8, 2013

  Actual Average Record
Temperature  
Mean Temperature 64 °F -  
Max Temperature 77 °F 74 °F 99 °F (1963)
Min Temperature 54 °F 48 °F 30 °F (1980)
Growing Degree Days 14 (Base 50)    
Moisture  
Dew Point 55 °F    
Average Humidity 75    
Maximum Humidity 90    
Minimum Humidity 52    
Precipitation  
Precipitation 0.85 in - - ()
Sea Level Pressure  
Sea Level Pressure 29.86 in    
Wind  
Wind Speed 14 mph (SE)    
Max Wind Speed 23 mph    
Max Gust Speed 30 mph    
Visibility 9 miles    
Events Rain , Thunderstorm    
Averages and records for this station are not official NWS values.
T = Trace of Precipitation, MM = Missing Value Source: NWS Daily Summary

Daily Weather History Graph

Daily Weather History Graph

Search for Another Location

Airport:

Trip Planner

Search our weather history database for the weather conditions in past years. The results will help you decide how hot, cold, wet, or windy it might be!

Date:

Astronomy

May. 08, 2013 Rise Set
Actual Time 6:29 AM CDT 8:34 PM CDT
Civil Twilight 5:59 AM CDT 9:04 PM CDT
Nautical Twilight 5:24 AM CDT 9:40 PM CDT
Astronomical Twilight 4:45 AM CDT 10:19 PM CDT
Moon 5:37 AM CDT (5/8) 7:34 PM CDT (5/8)
Length of Visible Light 15h 04m
Length of Day
14h 05m
Waning Crescent, 2% of the Moon is Illuminated
May 8
Waning Crescent
May 9
New
May 17
First Quarter
May 24
Full
May 31
Last Quarter

Hourly Weather History & Observations

Time (CDT) Temp. Dew Point Humidity Pressure Visibility Wind Dir Wind Speed Gust Speed Precip Events Conditions
12:48 AM 57.2 °F 53.6 °F 88% 29.91 in 7.0 mi ESE 20.7 mph - 0.12 in Rain Light Rain
12:53 AM 57.9 °F 54.0 °F 87% 29.90 in 10.0 mi ESE 19.6 mph - 0.12 in Thunderstorm Overcast
1:21 AM 57.2 °F 53.6 °F 88% 29.90 in 10.0 mi SE 18.4 mph - N/A   Scattered Clouds
1:53 AM 57.0 °F 53.1 °F 87% 29.87 in 10.0 mi SE 18.4 mph - N/A   Clear
2:53 AM 57.0 °F 52.0 °F 83% 29.84 in 10.0 mi SE 23.0 mph 28.8 mph N/A   Clear
3:53 AM 57.0 °F 52.0 °F 83% 29.85 in 10.0 mi SE 16.1 mph - N/A   Clear
4:53 AM 55.9 °F 53.1 °F 90% 29.86 in 10.0 mi East 6.9 mph - N/A   Clear
5:53 AM 54.0 °F 51.1 °F 90% 29.86 in 10.0 mi SE 4.6 mph - N/A   Clear
6:53 AM 54.0 °F 51.1 °F 90% 29.86 in 10.0 mi ESE 10.4 mph - N/A   Clear
7:53 AM 55.9 °F 53.1 °F 90% 29.89 in 10.0 mi ENE 3.5 mph - N/A   Clear
8:53 AM 60.1 °F 55.9 °F 86% 29.87 in 10.0 mi SE 12.7 mph 20.7 mph N/A   Clear
9:53 AM 63.0 °F 55.9 °F 78% 29.88 in 10.0 mi SSE 16.1 mph - N/A   Clear
10:53 AM 68.0 °F 57.0 °F 68% 29.86 in 10.0 mi South 12.7 mph - N/A   Clear
11:53 AM 72.0 °F 55.0 °F 55% 29.87 in 10.0 mi SSW 10.4 mph - N/A   Clear
12:53 PM 73.0 °F 57.0 °F 57% 29.86 in 10.0 mi South 13.8 mph - N/A   Clear
1:53 PM 73.0 °F 57.0 °F 57% 29.85 in 10.0 mi South 10.4 mph - N/A   Clear
2:53 PM 73.9 °F 57.9 °F 57% 29.84 in 10.0 mi Variable 3.5 mph - N/A   Partly Cloudy
3:53 PM 75.0 °F 57.9 °F 55% 29.81 in 10.0 mi SE 5.8 mph - N/A   Clear
4:53 PM 75.9 °F 60.1 °F 58% 29.81 in 10.0 mi SE 11.5 mph - N/A   Scattered Clouds
5:53 PM 75.9 °F 57.0 °F 52% 29.81 in 10.0 mi SE 10.4 mph - N/A   Partly Cloudy
6:53 PM 73.0 °F 57.9 °F 59% 29.81 in 10.0 mi SE 12.7 mph - N/A   Scattered Clouds
7:35 PM 71.6 °F 60.8 °F 69% 29.79 in 10.0 mi ESE 9.2 mph - N/A Thunderstorm Mostly Cloudy
7:50 PM 69.8 °F 60.8 °F 73% 29.80 in 10.0 mi ESE 8.1 mph - N/A   Partly Cloudy
7:53 PM 71.1 °F 59.0 °F 66% 29.77 in 10.0 mi East 6.9 mph - N/A   Partly Cloudy
8:23 PM 69.8 °F 60.8 °F 73% 29.83 in 10.0 mi East 9.2 mph - N/A Thunderstorm Scattered Clouds
8:53 PM 66.0 °F 60.1 °F 81% 29.81 in 10.0 mi NNE 5.8 mph - 0.00 in Rain , Thunderstorm Light Rain
9:19 PM 66.2 °F 48.2 °F 52% 29.87 in 2.0 mi ENE 18.4 mph 29.9 mph 0.23 in Rain Heavy Rain
9:53 PM 60.1 °F 52.0 °F 75% 29.91 in 7.0 mi SW 9.2 mph - 0.43 in Rain Light Rain
10:34 PM 57.2 °F 51.8 °F 82% 29.98 in 8.0 mi NNW 16.1 mph 19.6 mph 0.18 in Rain Rain
10:53 PM 57.0 °F 51.1 °F 81% 29.97 in 7.0 mi WNW 12.7 mph 25.3 mph 0.22 in Rain , Thunderstorm Thunderstorms and Rain
11:19 PM 55.4 °F 51.8 °F 88% 29.97 in 7.0 mi NNW 9.2 mph - 0.05 in Rain , Thunderstorm Heavy Thunderstorms and Rain
11:35 PM 55.4 °F 51.8 °F 88% 29.90 in 10.0 mi North 20.7 mph - 0.07 in Rain Light Rain
11:53 PM 55.0 °F 52.0 °F 89% 29.87 in 10.0 mi NNW 16.1 mph - 0.08 in Rain Light Rain